User: anonymous   Login
Location: Caltech
(34.1382°N, 118.1253°W)
Time: 21:31:40
(UTC-07:00)
Language:

Cosmos 1758 Rocket - Orbit

View from above orbital plane
View from above orbital plane
View from above satellite
View from above satellite

Ground track
Ground track

The orbit data is extracted from the following two-line orbital elements,

1 16792U 86046B   14294.88904424  .00000910  00000-0  10952-3 0  6096
2 16792 082.4860 034.2426 0023364 241.4875 257.8856 14.82661387531225
Epoch (UTC): 21 October 2014 21:20:13
Eccentricity: 0.0023364
inclination: 82.4860°
perigee height: 604 km
apogee height: 637 km
right ascension of ascending node: 34.2426°
argument of perigee: 241.4875°
revolutions per day: 14.82661387
mean anomaly at epoch: 257.8856°
orbit number at epoch: 53122

The dashed part of the orbit path shows where the satellite is in the earth's shadow,  

DLR